Hayward, WI

4:26 AM CST on November 12, 2019 (GMT -0600)
Sawyer County

Weather History for KHYR - September, 2019

Change the Weather History Date:

Friday, September 20, 2019

  Actual Average Record
Temperature  
Mean Temperature 66 °F -  
Max Temperature 79 °F 77 °F 82 °F (2005)
Min Temperature 54 °F 52 °F 28 °F (1999)
Cooling Degree Days 2    
Growing Degree Days 16 (Base 50)    
Moisture  
Dew Point 60 °F    
Average Humidity 87    
Maximum Humidity 97    
Minimum Humidity 64    
Precipitation  
Precipitation 0.00 in - - ()
Sea Level Pressure  
Sea Level Pressure 30.08 in    
Wind  
Wind Speed 4 mph (East)    
Max Wind Speed 14 mph    
Max Gust Speed 18 mph    
Visibility 5 miles    
Events Fog    
Averages and records for this station are not official NWS values.
T = Trace of Precipitation, MM = Missing Value Source: NWS Daily Summary

Daily Weather History Graph

Daily Weather History Graph

Search for Another Location

Airport or City:

Astronomy

Sep. 20, 2019 Rise Set
Actual Time 6:49 AM CDT 7:07 PM CDT
Civil Twilight 6:20 AM CDT 7:37 PM CDT
Nautical Twilight 5:44 AM CDT 8:12 PM CDT
Astronomical Twilight 5:08 AM CDT 8:48 PM CDT
Moon 10:38 PM CDT (9/20) 1:13 PM CDT (9/20)
Length of Visible Light 13h 17m
Length of Day
12h 17m
Waning Gibbous, 65% of the Moon is Illuminated
Sep 20
Waning Gibbous
Sep 21
Last Quarter
Sep 28
New
Oct 5
First Quarter
Oct 13
Full

Hourly Weather History & Observations

Time (CDT) Temp. Dew Point Humidity Pressure Visibility Wind Dir Wind Speed Gust Speed Precip Events Conditions
12:53 AM 59.0 °F 57.0 °F 93% 30.07 in 5.0 mi NNE 4.6 mph - N/A   Partly Cloudy
1:23 AM 60.1 °F 57.9 °F 93% 30.09 in 1.0 mi NNE 3.5 mph - N/A   Clear
1:30 AM 60.1 °F 57.9 °F 93% 30.09 in 0.2 mi Calm Calm - N/A Fog Fog
1:53 AM 57.9 °F 55.0 °F 90% 30.09 in 0.5 mi Calm Calm - N/A Fog Fog
2:03 AM 59.0 °F 55.9 °F 90% 30.09 in 1.5 mi Calm Calm - N/A   Partly Cloudy
2:05 AM 57.9 °F 55.9 °F 93% 30.09 in 4.0 mi Calm Calm - N/A   Partly Cloudy
2:22 AM 57.0 °F 55.0 °F 93% 30.10 in 1.5 mi NNE 3.5 mph - N/A   Clear
2:25 AM 57.0 °F 55.0 °F 93% 30.10 in 0.8 mi NNE 4.6 mph - N/A   Clear
2:46 AM 57.0 °F 55.9 °F 96% 30.10 in 1.5 mi Calm Calm - N/A   Clear
2:51 AM 57.2 °F 55.4 °F 94% 30.10 in 0.5 mi Calm Calm - N/A Fog Fog
2:53 AM 57.0 °F 55.9 °F 96% 30.09 in 0.2 mi NNE 3.5 mph - N/A Fog Fog
3:01 AM 57.9 °F 55.9 °F 93% 30.10 in 0.2 mi NNE 3.5 mph - N/A Fog Fog
3:22 AM 57.9 °F 57.0 °F 97% 30.09 in 0.5 mi NNE 4.6 mph - N/A Fog Fog
3:53 AM 55.9 °F 55.0 °F 97% 30.09 in 0.2 mi North 3.5 mph - N/A Fog Fog
4:18 AM 55.9 °F 55.0 °F 97% 30.10 in 0.2 mi NNE 4.6 mph - N/A Fog Fog
4:53 AM 55.9 °F 55.0 °F 97% 30.10 in 0.2 mi NNE 4.6 mph - N/A Fog Fog
5:53 AM 55.9 °F 54.0 °F 93% 30.09 in 1.0 mi North 3.5 mph - N/A   Mist
5:56 AM 55.9 °F 55.0 °F 97% 30.10 in 2.0 mi NNE 3.5 mph - N/A   Partly Cloudy
6:01 AM 55.9 °F 55.0 °F 97% 30.10 in 1.0 mi NNE 4.6 mph - N/A   Mist
6:08 AM 55.0 °F 54.0 °F 96% 30.10 in 0.2 mi Calm Calm - N/A Fog Fog
6:15 AM 55.9 °F 54.0 °F 93% 30.10 in 1.8 mi Calm Calm - N/A   Partly Cloudy
6:22 AM 55.0 °F 54.0 °F 96% 30.10 in 7.0 mi Calm Calm - N/A   Partly Cloudy
6:36 AM 54.0 °F 53.1 °F 97% 30.10 in 0.2 mi NNE 5.8 mph - N/A Fog Fog
6:53 AM 57.0 °F 55.9 °F 96% 30.11 in 0.2 mi NNE 3.5 mph - N/A Fog Fog
7:53 AM 60.1 °F 57.9 °F 93% 30.12 in 0.2 mi Calm Calm - N/A Fog Fog
8:05 AM 62.1 °F 60.1 °F 93% 30.12 in 1.2 mi Calm Calm - N/A   Overcast
8:09 AM 62.1 °F 60.1 °F 93% 30.12 in 3.0 mi Calm Calm - N/A   Overcast
8:53 AM 64.0 °F 63.0 °F 96% 30.12 in 9.0 mi Calm Calm - N/A   Overcast
9:53 AM 68.0 °F 64.9 °F 90% 30.10 in 9.0 mi East 4.6 mph - N/A   Overcast
10:22 AM 69.1 °F 66.0 °F 90% 30.10 in 10.0 mi East 5.8 mph - N/A   Overcast
10:33 AM 70.0 °F 66.0 °F 87% 30.09 in 10.0 mi ESE 5.8 mph - N/A   Mostly Cloudy
10:53 AM 72.0 °F 66.9 °F 84% 30.08 in 10.0 mi ESE 8.1 mph - N/A   Mostly Cloudy
11:01 AM 73.0 °F 66.0 °F 79% 30.08 in 10.0 mi SSE 9.2 mph - N/A   Mostly Cloudy
11:53 AM 73.9 °F 66.0 °F 76% 30.08 in 10.0 mi South 13.8 mph - N/A   Mostly Cloudy
12:42 PM 73.9 °F 66.0 °F 76% 30.09 in 10.0 mi SE 10.4 mph - N/A   Mostly Cloudy
12:53 PM 73.9 °F 66.0 °F 76% 30.09 in 10.0 mi SE 11.5 mph - N/A   Scattered Clouds
1:23 PM 75.9 °F 66.0 °F 71% 30.08 in 10.0 mi SSE 10.4 mph 18.4 mph N/A   Mostly Cloudy
1:53 PM 78.1 °F 66.0 °F 66% 30.07 in 10.0 mi South 10.4 mph 18.4 mph N/A   Mostly Cloudy
2:08 PM 77.0 °F 64.9 °F 66% 30.08 in 10.0 mi SSE 10.4 mph - N/A   Partly Cloudy
2:53 PM 78.1 °F 64.9 °F 64% 30.06 in 10.0 mi SE 8.1 mph - N/A   Partly Cloudy
3:53 PM 79.0 °F 66.0 °F 64% 30.04 in 10.0 mi SE 6.9 mph - N/A   Scattered Clouds
4:53 PM 78.1 °F 64.9 °F 64% 30.04 in 10.0 mi SSE 5.8 mph - N/A   Clear
5:53 PM 75.9 °F 66.0 °F 71% 30.03 in 10.0 mi SSE 4.6 mph - N/A   Scattered Clouds
6:53 PM 75.0 °F 66.0 °F 73% 30.02 in 10.0 mi SSE 5.8 mph - N/A   Scattered Clouds
7:53 PM 73.0 °F 66.0 °F 79% 30.02 in 10.0 mi SE 3.5 mph - N/A   Partly Cloudy
8:53 PM 73.0 °F 66.0 °F 79% 30.00 in 9.0 mi SSE 9.2 mph 17.3 mph N/A   Clear
9:53 PM 73.0 °F 66.9 °F 81% 29.99 in 8.0 mi South 9.2 mph - N/A   Clear
10:53 PM 72.0 °F 66.9 °F 84% 29.97 in 8.0 mi SSE 11.5 mph - N/A   Clear
11:53 PM 71.1 °F 66.9 °F 87% 29.97 in 6.0 mi South 8.1 mph - N/A   Partly Cloudy